Location: Grust
(42.8833°N, 0.0333°W)
Time: 19:24:40
(UTC+00:00)

Cosmos 1110 Rocket - Pass Details

Date: 25 October 2020
Orbit: 753 x 780 km, 74.0° (Epoch: 23 November)

Event Time Altitude Azimuth Distance (km) Brightness Sun altitude
Rises 17:38:53 0° 194° (SSW) 3,233 7.6 -7.5°
Reaches altitude 10° 17:41:16 10° 193° (SSW) 2,306 6.8 -7.9°
Maximum altitude 17:46:29 78° 109° (ESE) 787 4.0 -8.9°
Drops below altitude 10° 17:51:43 10° 23° (NNE) 2,304 6.2 -9.8°
Sets 17:54:05 0° 22° (NNE) 3,230 6.9 -10.2°
